Regional Weather Roundup
Issued by NWS Sterling, VA

Home | Current Version | Previous Version | Graphics & Text | Print | Product List | Glossary On
Versions: 1 2 3 4 5 6 7 8 9 10 11 12 13 14 15 16 17 18 19 20 21 22 23 24 25 26 27
000
ASUS41 KLWX 231011
RWRLWX

REGIONAL WEATHER ROUNDUP
NATIONAL WEATHER SERVICE BALTIMORE MD/WASHINGTON DC
600 AM EDT SAT JUL 23 2016

Note: "FAIR" indicates few or no clouds below 12,000 feet
with no significant weather and/or obstructions to visibility.
 TC=TEMPERATURE CELSIUS

 * =Non NWS site. Station does not report precipitation (e.g. rain,
    snow, etc.), thunder, or fog.

DCZ001-MDZ009-015-VAZ040>042-051-053>054-231100-
WASHINGTON METRO

CITY           SKY/WX    TMP DP  RH WIND       PRES   REMARKS
WASHINGTON NAT FAIR      79  71  76 N9        29.93S
DULLES         FAIR      71  69  93 SW3       29.95S
ANDREWS AFB    CLEAR     79  71  75 NW8       29.93S
FT BELVOIR     FAIR      71  70  95 S1        29.93S
QUANTICO       FAIR      76  71  85 NW6       29.94S
COLLEGE PARK*  FAIR      79  70  73 CALM      29.93R
LEESBURG*      FAIR      77  72  83 NW5       29.96S
MANASSAS*      FAIR      72  70  94 CALM      29.95R
GAITHERSBURG*  CLEAR     72  68  88 CALM      30.00R

$$

MDZ006>007-011-014-231100-
BALTIMORE METRO

CITY           SKY/WX    TMP DP  RH WIND       PRES   REMARKS
BWI AIRPORT    PTCLDY    77  70  79 W8        29.92S
MD SCIENCE CTR   N/A     83  69  62 MISG      29.92S
MARTIN STATE   CLEAR    N/A N/A N/A W7        29.93S
ANNAPOLIS      CLEAR     80  71  74 W5        29.92R
FORT MEADE*    CLEAR     72  70  94 CALM      29.95S

$$

MDZ012-015-019>023-231100-
MARYLAND EASTERN SHORE

CITY           SKY/WX    TMP DP  RH WIND       PRES   REMARKS
OCEAN CITY     CLEAR     77  75  93 W5        29.91R
SALISBURY      CLEAR     77  75  93 W3        29.92R
BAY BRIDGE AP* CLEAR     82  73  74 NW10      29.91S
CAMBRIDGE*     CLEAR     72  70  94 CALM      29.92R
EASTON*        CLEAR     79  77  94 CALM      29.95S

$$

MDZ017>025-231100-
SOUTHERN MARYLAND

CITY           SKY/WX    TMP DP  RH WIND       PRES   REMARKS
PATUXENT RIVER CLEAR     76  71  85 SW6       29.92S
ST INIGOES     CLEAR     78  74  87 SW5       29.93R
LEONARDTOWN*   CLEAR     73  70  88 CALM      29.95R

$$

MDZ003>005-231100-
NORTH CENTRAL MARYLAND

CITY           SKY/WX    TMP DP  RH WIND       PRES   REMARKS
FREDERICK*     CLEAR     77  72  83 W9        29.97S
HAGERSTOWN APT CLEAR     79  68  69 SW8       29.97R

$$

MDZ501>502-231100-
WESTERN MARYLAND

CITY           SKY/WX    TMP DP  RH WIND       PRES   REMARKS
OAKLAND*       CLOUDY    64  64 100 W8        30.13R FOG
CUMBERLAND*    CLEAR     73  68  83 S5        30.04R

$$

VAZ025>031-231100-
SHENANDOAH VALLEY

CITY           SKY/WX    TMP DP  RH WIND       PRES   REMARKS
WINCHESTER*    FAIR      72  68  88 W3        29.99R
FRONT ROYAL*   FAIR      70  68  94 S5        29.97S
LURAY*         FAIR      68  68 100 CALM      30.01R
NEW MARKET*    FAIR      67  66  95 CALM      30.00S
STAUNTON*      FAIR      65  65  97 CALM      30.04S FOG
WAYNESBORO*    FAIR      66  65  96 CALM      30.04R

$$

WVZ021-048>050-054>055-231100-
EASTERN WEST VIRGINIA PANHANDLE

CITY           SKY/WX    TMP DP  RH WIND       PRES   REMARKS
MARTINSBURG    FAIR      77  66  68 CALM      29.96R
PETERSBURG*    FAIR      66  65  98 CALM      30.02S FOG

$$

VAZ036>039-050-231100-
CENTRAL FOOTHILLS

CITY           SKY/WX    TMP DP  RH WIND       PRES   REMARKS
CHARLOTTESVILL FAIR      73  69  87 CALM      29.97R
CULPEPER*      FOG       69  69 100 CALM      29.96S VSB 1/4
ORANGE*          N/A     70  70 100 CALM      29.98R
GORDONSVILLE*  FAIR      68  68 100 N5        29.96R FOG
WARRENTON*     FOG       68  64  86 CALM      29.95S VSB 1/4

$$

VAZ055>057-231100-
NORTH AND CENTRAL PIEDMONT

CITY           SKY/WX    TMP DP  RH WIND       PRES   REMARKS
FREDERICKSBRG* FAIR      72  72 100 CALM      29.94R
STAFFORD*      FAIR      69  68  95 CALM      29.98S FOG

$$

NCZ024-NYZ072-PAZ021-071-VAZ022-071-231100-
OTHER REGIONAL OBSERVATIONS

CITY           SKY/WX    TMP DP  RH WIND       PRES   REMARKS
NEW YORK CITY  CLEAR     81  63  54 W7        29.88R
PHILADELPHIA   PTCLDY    77  68  73 W8        29.90R
PITTSBURGH     MOCLDY    72  67  84 CALM      30.01S
ROANOKE        FAIR      72  67  84 W5        30.04S
RICHMOND       FAIR      74  72  93 S3        29.94S
RALEIGH        PTCLDY    73  70  90 W3        29.99R

$$

ANZ530>537-231100-
MARINE OBSERVATIONS

STATION/POSITION TIME  TEMP    WIND        PRES
                       AIR SEA DIR/SP/G
                 (UTC) (F)     (DEG/KT/KT) (MB)
THOMAS PT LIGHT  1000   80 81  300/ 13/ 14 1014.5R
BALT KEY BRIDGE  0942   82     280/ 10/ 11 1012.9R
COVE POINT       0942   80     320/  7/  9 1013.7R
LEWISETTA        0942   79 84  250/  6/  7 1013.2R
SOLOMONS ISLAND  0942   80 83  270/  3/  4   N/A
PINEY POINT      0948          270/  7/  8   N/A

$$





USA.gov is the U.S. government's official web portal to all federal, state and local government web resources and services.